Time,TemperatureF,DewpointF,PressureIn,WindDirection,WindDirectionDegrees,WindSpeedMPH,WindSpeedGustMPH,Humidity,HourlyPrecipIn,Conditions,Clouds,dailyrainin,SoftwareType,DateUTC
2017-03-26 00:02:00,58.7,57.0,29.98,SSW,197,0.0,1.0,94,0.01,,-RA,0.00,VWS V15.00,2017-03-26 05:02:00,
2017-03-26 00:07:00,58.8,57.4,29.98,SSW,198,2.0,8.0,95,0.01,,-RA,0.00,VWS V15.00,2017-03-26 05:07:00,
2017-03-26 00:12:00,58.9,57.5,29.98,SSW,198,0.0,0.0,95,0.00,,-RA,0.00,VWS V15.00,2017-03-26 05:12:00,
2017-03-26 00:17:00,58.9,57.5,29.97,SSW,198,0.0,0.0,95,0.00,,-RA,0.00,VWS V15.00,2017-03-26 05:17:00,
2017-03-26 00:22:00,59.0,57.3,29.97,SSW,198,2.0,3.0,94,0.01,,-RA,0.01,VWS V15.00,2017-03-26 05:22:00,
2017-03-26 00:27:00,58.9,57.2,29.97,SSW,198,0.0,3.0,94,0.01,,-RA,0.01,VWS V15.00,2017-03-26 05:27:00,
2017-03-26 00:32:00,58.9,57.2,29.97,SSW,198,0.0,0.0,94,0.01,,-RA,0.01,VWS V15.00,2017-03-26 05:32:00,
2017-03-26 00:37:00,58.8,57.1,29.97,SSW,198,0.0,0.0,94,0.01,,-RA,0.01,VWS V15.00,2017-03-26 05:37:00,
2017-03-26 00:42:00,58.6,56.9,29.97,SSW,198,0.0,0.0,94,0.01,,-RA,0.01,VWS V15.00,2017-03-26 05:42:00,
2017-03-26 00:47:00,58.6,56.9,29.97,SSW,198,0.0,2.0,94,0.01,,-RA,0.01,VWS V15.00,2017-03-26 05:47:00,
2017-03-26 00:52:00,58.5,56.8,29.97,SSW,198,0.0,0.0,94,0.01,,-RA,0.01,VWS V15.00,2017-03-26 05:52:00,
2017-03-26 00:57:00,58.4,56.7,29.97,SSW,198,0.0,3.0,94,0.01,,-RA,0.01,VWS V15.00,2017-03-26 05:57:00,
2017-03-26 01:02:00,58.4,57.0,29.97,SSW,198,0.0,0.0,95,0.01,,-RA,0.01,VWS V15.00,2017-03-26 06:02:00,
2017-03-26 01:07:00,58.4,57.0,29.97,SSW,198,0.0,0.0,95,0.01,,-RA,0.01,VWS V15.00,2017-03-26 06:07:00,
2017-03-26 01:12:00,58.3,56.9,29.97,SSW,198,0.0,0.0,95,0.01,,-RA,0.01,VWS V15.00,2017-03-26 06:12:00,
2017-03-26 01:17:00,58.3,56.9,29.96,SSW,198,0.0,0.0,95,0.01,,-RA,0.01,VWS V15.00,2017-03-26 06:17:00,
2017-03-26 01:22:00,58.2,56.8,29.96,SSW,198,0.0,0.0,95,0.01,,-RA,0.01,VWS V15.00,2017-03-26 06:22:00,
2017-03-26 01:27:00,58.1,56.7,29.96,SSW,198,0.0,5.0,95,0.01,,-RA,0.01,VWS V15.00,2017-03-26 06:27:00,
2017-03-26 01:32:00,58.0,56.6,29.96,SSW,198,0.0,0.0,95,0.00,,-RA,0.01,VWS V15.00,2017-03-26 06:32:00,
2017-03-26 01:37:00,58.0,56.6,29.96,SSW,198,2.0,4.0,95,0.01,,-RA,0.02,VWS V15.00,2017-03-26 06:37:00,
2017-03-26 01:42:00,58.0,56.6,29.96,SSW,198,0.0,0.0,95,0.01,,-RA,0.02,VWS V15.00,2017-03-26 06:42:00,
2017-03-26 01:47:00,57.9,56.8,29.95,SE,136,3.0,5.0,96,0.01,,-RA,0.02,VWS V15.00,2017-03-26 06:47:00,
2017-03-26 01:52:00,57.9,56.8,29.95,SE,136,0.0,0.0,96,0.01,,-RA,0.02,VWS V15.00,2017-03-26 06:52:00,
2017-03-26 01:57:00,57.9,56.8,29.95,SE,136,1.0,2.0,96,0.01,,-RA,0.02,VWS V15.00,2017-03-26 06:57:00,
2017-03-26 02:02:00,57.9,56.8,29.94,SE,126,3.0,4.0,96,0.01,,-RA,0.02,VWS V15.00,2017-03-26 07:02:00,
2017-03-26 02:07:00,57.8,56.7,29.94,SE,133,1.0,4.0,96,0.01,,-RA,0.02,VWS V15.00,2017-03-26 07:07:00,
2017-03-26 02:12:00,57.8,56.7,29.95,SE,134,0.0,4.0,96,0.01,,-RA,0.02,VWS V15.00,2017-03-26 07:12:00,
2017-03-26 02:17:00,57.8,56.7,29.94,SE,134,0.0,4.0,96,0.01,,-RA,0.02,VWS V15.00,2017-03-26 07:17:00,
2017-03-26 02:22:00,57.8,56.7,29.94,SE,134,0.0,1.0,96,0.01,,-RA,0.02,VWS V15.00,2017-03-26 07:22:00,
2017-03-26 02:27:00,57.8,56.7,29.94,SE,135,1.0,3.0,96,0.01,,-RA,0.02,VWS V15.00,2017-03-26 07:27:00,
2017-03-26 02:32:00,57.8,56.7,29.94,SE,134,0.0,0.0,96,0.01,,-RA,0.02,VWS V15.00,2017-03-26 07:32:00,
2017-03-26 02:37:00,57.9,56.8,29.95,SE,135,0.0,0.0,96,0.01,,-RA,0.02,VWS V15.00,2017-03-26 07:37:00,
2017-03-26 02:42:00,57.8,56.7,29.96,SE,135,0.0,0.0,96,0.00,,OVC085,0.02,VWS V15.00,2017-03-26 07:42:00,
2017-03-26 02:47:00,57.8,56.7,29.95,SE,140,0.0,0.0,96,0.00,,OVC085,0.02,VWS V15.00,2017-03-26 07:47:00,
2017-03-26 02:52:00,57.7,56.6,29.95,SE,140,0.0,0.0,96,0.00,,OVC085,0.02,VWS V15.00,2017-03-26 07:52:00,
2017-03-26 02:54:00,57.7,56.6,29.95,SE,140,0.0,0.0,96,0.00,,OVC085,0.02,VWS V15.00,2017-03-26 07:54:00,
2017-03-26 02:59:00,57.7,56.6,29.95,SE,140,0.0,0.0,96,0.00,,OVC085,0.02,VWS V15.00,2017-03-26 07:59:00,
2017-03-26 03:04:00,57.6,56.5,29.95,SE,140,0.0,0.0,96,0.00,,OVC085,0.02,VWS V15.00,2017-03-26 08:04:00,
2017-03-26 03:09:00,57.6,56.5,29.94,SE,138,2.0,3.0,96,0.00,,OVC085,0.02,VWS V15.00,2017-03-26 08:09:00,
2017-03-26 03:14:00,57.6,56.5,29.94,SE,140,1.0,4.0,96,0.00,,OVC085,0.02,VWS V15.00,2017-03-26 08:14:00,
2017-03-26 03:19:00,57.6,56.5,29.94,SE,140,0.0,4.0,96,0.00,,OVC085,0.02,VWS V15.00,2017-03-26 08:19:00,
2017-03-26 03:24:00,57.5,56.4,29.94,SE,140,1.0,4.0,96,0.00,,OVC085,0.02,VWS V15.00,2017-03-26 08:24:00,
2017-03-26 03:29:00,57.6,56.5,29.94,SE,140,2.0,4.0,96,0.01,,OVC085,0.03,VWS V15.00,2017-03-26 08:29:00,
2017-03-26 03:34:00,57.6,56.5,29.94,SSE,163,4.0,7.0,96,0.01,,OVC085,0.03,VWS V15.00,2017-03-26 08:34:00,
2017-03-26 03:39:00,57.6,56.5,29.94,SSE,164,0.0,7.0,96,0.01,,OVC085,0.03,VWS V15.00,2017-03-26 08:39:00,
2017-03-26 03:44:00,57.6,56.5,29.94,SSE,164,2.0,5.0,96,0.01,,OVC100,0.03,VWS V15.00,2017-03-26 08:44:00,
2017-03-26 03:49:00,57.6,56.5,29.94,SSE,164,0.0,5.0,96,0.01,,OVC100,0.03,VWS V15.00,2017-03-26 08:49:00,
2017-03-26 03:54:00,57.5,56.4,29.94,SSE,164,0.0,0.0,96,0.01,,OVC100,0.03,VWS V15.00,2017-03-26 08:54:00,
2017-03-26 03:59:00,57.5,56.4,29.94,SSE,164,1.0,5.0,96,0.01,,OVC100,0.03,VWS V15.00,2017-03-26 08:59:00,
2017-03-26 04:04:00,57.5,56.4,29.94,SSE,163,5.0,6.0,96,0.01,,OVC100,0.03,VWS V15.00,2017-03-26 09:04:00,
2017-03-26 04:09:00,57.5,56.4,29.94,SSE,167,4.0,7.0,96,0.01,,OVC100,0.03,VWS V15.00,2017-03-26 09:09:00,
2017-03-26 04:14:00,57.5,56.4,29.94,South,172,1.0,8.0,96,0.01,,OVC100,0.03,VWS V15.00,2017-03-26 09:14:00,
2017-03-26 04:19:00,57.5,56.4,29.93,South,169,6.0,8.0,96,0.01,,OVC100,0.03,VWS V15.00,2017-03-26 09:19:00,
2017-03-26 04:24:00,57.6,56.5,29.94,SSE,150,2.0,10.0,96,0.01,,OVC100,0.03,VWS V15.00,2017-03-26 09:24:00,
2017-03-26 04:29:00,57.6,56.5,29.94,SSW,195,3.0,10.0,96,0.01,,OVC100,0.03,VWS V15.00,2017-03-26 09:29:00,
2017-03-26 04:34:00,57.6,56.5,29.94,SSW,194,6.0,8.0,96,0.00,,OVC100,0.03,VWS V15.00,2017-03-26 09:34:00,
2017-03-26 04:39:00,57.6,56.5,29.94,South,182,5.0,8.0,96,0.00,,OVC100,0.03,VWS V15.00,2017-03-26 09:39:00,
2017-03-26 04:44:00,57.6,56.5,29.94,South,189,3.0,5.0,96,0.00,,OVC120,0.03,VWS V15.00,2017-03-26 09:44:00,
2017-03-26 04:49:00,57.6,56.5,29.94,South,184,0.0,5.0,96,0.00,,OVC120,0.03,VWS V15.00,2017-03-26 09:49:00,
2017-03-26 04:54:00,57.6,56.5,29.94,South,173,3.0,7.0,96,0.00,,OVC120,0.03,VWS V15.00,2017-03-26 09:54:00,
2017-03-26 04:59:00,57.6,56.5,29.94,SSW,199,0.0,9.0,96,0.00,,OVC120,0.03,VWS V15.00,2017-03-26 09:59:00,
2017-03-26 05:04:00,57.8,56.7,29.94,SSW,201,2.0,7.0,96,0.00,,OVC120,0.03,VWS V15.00,2017-03-26 10:04:00,
2017-03-26 05:09:00,57.8,56.7,29.94,SSW,194,2.0,7.0,96,0.00,,OVC120,0.03,VWS V15.00,2017-03-26 10:09:00,
2017-03-26 05:14:00,57.7,56.6,29.94,South,179,3.0,5.0,96,0.00,,OVC120,0.03,VWS V15.00,2017-03-26 10:14:00,
2017-03-26 05:19:00,57.8,56.7,29.94,South,183,2.0,5.0,96,0.00,,OVC120,0.03,VWS V15.00,2017-03-26 10:19:00,
2017-03-26 05:24:00,57.8,56.7,29.94,SSE,158,2.0,6.0,96,0.00,,OVC120,0.03,VWS V15.00,2017-03-26 10:24:00,
2017-03-26 05:29:00,57.8,56.7,29.95,SSE,158,0.0,6.0,96,0.00,,OVC120,0.03,VWS V15.00,2017-03-26 10:29:00,
2017-03-26 05:34:00,57.8,56.7,29.95,SSE,159,4.0,5.0,96,0.00,,OVC120,0.03,VWS V15.00,2017-03-26 10:34:00,
2017-03-26 05:39:00,57.8,56.7,29.95,SSE,166,3.0,5.0,96,0.00,,OVC120,0.03,VWS V15.00,2017-03-26 10:39:00,
2017-03-26 05:44:00,57.8,56.7,29.95,SSE,167,4.0,5.0,96,0.00,,OVC120,0.03,VWS V15.00,2017-03-26 10:44:00,
2017-03-26 05:49:00,57.8,56.4,29.95,SSE,167,3.0,5.0,95,0.00,,OVC120,0.03,VWS V15.00,2017-03-26 10:49:00,
2017-03-26 05:54:00,57.8,56.4,29.95,SSE,168,1.0,8.0,95,0.00,,OVC027,0.03,VWS V15.00,2017-03-26 10:54:00,
2017-03-26 05:59:00,57.8,56.4,29.95,South,173,1.0,8.0,95,0.00,,OVC027,0.03,VWS V15.00,2017-03-26 10:59:00,
2017-03-26 06:04:00,57.8,56.4,29.95,South,173,5.0,6.0,95,0.00,,OVC027,0.03,VWS V15.00,2017-03-26 11:04:00,
2017-03-26 06:09:00,57.8,56.4,29.95,South,175,2.0,7.0,95,0.00,,OVC027,0.03,VWS V15.00,2017-03-26 11:09:00,
2017-03-26 06:10:00,57.8,56.4,29.95,South,175,3.0,7.0,95,0.00,,OVC027,0.03,VWS V15.00,2017-03-26 11:10:00,
2017-03-26 06:15:00,57.9,56.5,29.95,South,172,0.0,5.0,95,0.00,,OVC027,0.03,VWS V15.00,2017-03-26 11:15:00,
2017-03-26 06:20:00,57.9,56.5,29.95,South,171,1.0,5.0,95,0.00,,OVC027,0.03,VWS V15.00,2017-03-26 11:20:00,
2017-03-26 06:25:00,58.0,56.6,29.95,South,173,3.0,7.0,95,0.00,,OVC027,0.03,VWS V15.00,2017-03-26 11:25:00,
2017-03-26 06:30:00,58.0,56.6,29.95,South,171,4.0,7.0,95,0.00,,OVC027,0.03,VWS V15.00,2017-03-26 11:30:00,
2017-03-26 06:35:00,58.0,56.6,29.95,South,172,2.0,5.0,95,0.00,,OVC027,0.03,VWS V15.00,2017-03-26 11:35:00,
2017-03-26 06:40:00,58.0,56.6,29.95,South,174,2.0,5.0,95,0.00,,OVC028,0.03,VWS V15.00,2017-03-26 11:40:00,
2017-03-26 06:45:00,58.0,56.6,29.95,South,175,0.0,3.0,95,0.00,,OVC028,0.03,VWS V15.00,2017-03-26 11:45:00,
2017-03-26 06:50:00,57.9,56.5,29.95,South,175,3.0,4.0,95,0.00,,OVC028,0.03,VWS V15.00,2017-03-26 11:50:00,
2017-03-26 06:55:00,57.9,56.5,29.96,South,175,0.0,2.0,95,0.00,,OVC028,0.03,VWS V15.00,2017-03-26 11:55:00,
2017-03-26 07:00:00,57.9,56.5,29.96,South,176,1.0,3.0,95,0.00,,OVC028,0.03,VWS V15.00,2017-03-26 12:00:00,
2017-03-26 07:05:00,57.9,56.5,29.97,South,176,0.0,1.0,95,0.00,,OVC028,0.03,VWS V15.00,2017-03-26 12:05:00,
2017-03-26 07:10:00,57.9,56.5,29.97,South,176,0.0,4.0,95,0.00,,OVC028,0.03,VWS V15.00,2017-03-26 12:10:00,
2017-03-26 07:15:00,58.0,56.6,29.97,South,176,0.0,0.0,95,0.00,,OVC028,0.03,VWS V15.00,2017-03-26 12:15:00,
2017-03-26 07:20:00,58.0,56.6,29.97,South,177,0.0,4.0,95,0.00,,OVC028,0.03,VWS V15.00,2017-03-26 12:20:00,
2017-03-26 07:25:00,58.0,56.6,29.97,South,177,0.0,1.0,95,0.00,,OVC028,0.03,VWS V15.00,2017-03-26 12:25:00,
2017-03-26 07:30:00,58.1,56.7,29.97,South,177,0.0,1.0,95,0.00,,OVC028,0.03,VWS V15.00,2017-03-26 12:30:00,
2017-03-26 07:35:00,58.2,56.8,29.97,South,178,4.0,4.0,95,0.00,,OVC028,0.03,VWS V15.00,2017-03-26 12:35:00,
2017-03-26 07:40:00,58.2,56.8,29.97,South,179,0.0,4.0,95,0.00,,OVC029,0.03,VWS V15.00,2017-03-26 12:40:00,
2017-03-26 07:45:00,58.4,57.0,29.98,South,179,1.0,3.0,95,0.00,,OVC029,0.03,VWS V15.00,2017-03-26 12:45:00,
2017-03-26 07:50:00,58.4,57.0,29.98,South,179,0.0,4.0,95,0.00,,OVC029,0.03,VWS V15.00,2017-03-26 12:50:00,
2017-03-26 07:55:00,58.5,57.1,29.98,South,179,0.0,3.0,95,0.00,,OVC029,0.03,VWS V15.00,2017-03-26 12:55:00,
2017-03-26 08:00:00,58.6,56.9,29.98,South,178,0.0,3.0,94,0.00,,OVC029,0.03,VWS V15.00,2017-03-26 13:00:00,
2017-03-26 08:05:00,58.7,57.0,29.99,South,178,0.0,1.0,94,0.00,,OVC029,0.03,VWS V15.00,2017-03-26 13:05:00,
2017-03-26 08:10:00,58.7,57.0,29.99,South,180,2.0,4.0,94,0.00,,OVC029,0.03,VWS V15.00,2017-03-26 13:10:00,
2017-03-26 08:15:00,58.9,57.2,29.99,South,179,0.0,2.0,94,0.00,,OVC029,0.03,VWS V15.00,2017-03-26 13:15:00,
2017-03-26 08:20:00,58.9,57.2,29.99,South,179,1.0,4.0,94,0.00,,OVC029,0.03,VWS V15.00,2017-03-26 13:20:00,
2017-03-26 08:25:00,59.0,57.3,29.99,South,182,0.0,3.0,94,0.00,,OVC029,0.03,VWS V15.00,2017-03-26 13:25:00,
2017-03-26 08:30:00,59.1,57.1,29.99,South,179,1.0,3.0,93,0.00,,OVC029,0.03,VWS V15.00,2017-03-26 13:30:00,
2017-03-26 08:35:00,59.2,57.2,29.99,South,176,2.0,5.0,93,0.00,,OVC029,0.03,VWS V15.00,2017-03-26 13:35:00,
2017-03-26 08:40:00,59.2,57.2,29.99,South,176,0.0,5.0,93,0.00,,OVC033,0.03,VWS V15.00,2017-03-26 13:40:00,
2017-03-26 08:45:00,59.3,57.3,29.99,South,176,2.0,4.0,93,0.00,,OVC033,0.03,VWS V15.00,2017-03-26 13:45:00,
2017-03-26 08:50:00,59.5,57.5,29.99,South,176,2.0,2.0,93,0.00,,OVC033,0.03,VWS V15.00,2017-03-26 13:50:00,
2017-03-26 08:55:00,59.6,57.6,29.99,South,176,3.0,4.0,93,0.00,,OVC033,0.03,VWS V15.00,2017-03-26 13:55:00,
2017-03-26 09:00:00,59.8,57.8,29.99,South,176,0.0,0.0,93,0.00,,OVC033,0.03,VWS V15.00,2017-03-26 14:00:00,
2017-03-26 09:05:00,59.9,57.6,29.99,South,178,1.0,5.0,92,0.00,,OVC033,0.03,VWS V15.00,2017-03-26 14:05:00,
2017-03-26 09:10:00,60.0,57.7,30.00,South,188,0.0,1.0,92,0.00,,OVC033,0.03,VWS V15.00,2017-03-26 14:10:00,
2017-03-26 09:15:00,60.1,57.5,30.00,South,190,6.0,6.0,91,0.00,,OVC033,0.03,VWS V15.00,2017-03-26 14:15:00,
2017-03-26 09:20:00,60.2,57.6,30.00,SSW,203,0.0,0.0,91,0.00,,OVC033,0.03,VWS V15.00,2017-03-26 14:20:00,
2017-03-26 09:25:00,60.3,57.4,30.00,South,181,2.0,5.0,90,0.00,,OVC033,0.03,VWS V15.00,2017-03-26 14:25:00,
2017-03-26 09:30:00,60.4,57.5,30.00,SSW,192,2.0,4.0,90,0.00,,OVC033,0.03,VWS V15.00,2017-03-26 14:30:00,
2017-03-26 09:35:00,60.6,57.7,30.00,South,191,1.0,4.0,90,0.00,,OVC033,0.03,VWS V15.00,2017-03-26 14:35:00,
2017-03-26 09:40:00,60.8,57.8,30.00,SSW,196,1.0,3.0,90,0.00,,OVC022,0.03,VWS V15.00,2017-03-26 14:40:00,
2017-03-26 09:45:00,61.0,57.7,30.00,SSW,196,3.0,4.0,89,0.00,,OVC022,0.03,VWS V15.00,2017-03-26 14:45:00,
2017-03-26 09:50:00,61.2,57.9,30.00,SSW,194,2.0,3.0,89,0.00,,OVC022,0.03,VWS V15.00,2017-03-26 14:50:00,
2017-03-26 09:55:00,61.4,58.1,30.00,SSW,213,4.0,6.0,89,0.00,,OVC022,0.03,VWS V15.00,2017-03-26 14:55:00,
2017-03-26 10:00:00,61.6,58.0,30.00,SSW,212,7.0,8.0,88,0.00,,OVC022,0.03,VWS V15.00,2017-03-26 15:00:00,
2017-03-26 10:05:00,61.8,58.2,30.00,SSW,194,4.0,9.0,88,0.00,,OVC022,0.03,VWS V15.00,2017-03-26 15:05:00,
2017-03-26 10:10:00,62.0,58.1,30.00,SSW,194,1.0,3.0,87,0.00,,OVC022,0.03,VWS V15.00,2017-03-26 15:10:00,
2017-03-26 10:15:00,62.4,58.5,30.00,South,184,0.0,5.0,87,0.00,,OVC022,0.03,VWS V15.00,2017-03-26 15:15:00,
2017-03-26 10:20:00,62.7,58.5,30.00,South,186,3.0,3.0,86,0.00,,OVC022,0.03,VWS V15.00,2017-03-26 15:20:00,
2017-03-26 10:25:00,62.9,58.7,30.00,SSW,192,6.0,7.0,86,0.00,,OVC022,0.03,VWS V15.00,2017-03-26 15:25:00,
2017-03-26 10:30:00,63.2,58.6,30.00,SSW,199,4.0,4.0,85,0.00,,OVC022,0.03,VWS V15.00,2017-03-26 15:30:00,
2017-03-26 10:31:00,63.3,58.7,30.00,SSW,207,3.0,5.0,85,0.00,,OVC022,0.03,VWS V15.00,2017-03-26 15:31:00,
2017-03-26 10:36:00,63.5,58.2,30.00,SSW,202,3.0,8.0,83,0.00,,OVC022,0.03,VWS V15.00,2017-03-26 15:36:00,
2017-03-26 10:41:00,63.8,58.9,30.00,SSW,207,0.0,1.0,84,0.00,,OVC027,0.03,VWS V15.00,2017-03-26 15:41:00,
2017-03-26 10:46:00,64.3,58.7,30.00,South,188,5.0,8.0,82,0.00,,OVC027,0.03,VWS V15.00,2017-03-26 15:46:00,
2017-03-26 10:51:00,64.7,59.1,30.00,WSW,240,6.0,14.0,82,0.00,,OVC027,0.03,VWS V15.00,2017-03-26 15:51:00,
2017-03-26 10:56:00,64.9,58.6,29.99,SSW,210,4.0,14.0,80,0.00,,OVC027,0.03,VWS V15.00,2017-03-26 15:56:00,
2017-03-26 11:01:00,65.0,58.3,29.99,SSW,202,5.0,5.0,79,0.00,,OVC027,0.03,VWS V15.00,2017-03-26 16:01:00,
2017-03-26 11:06:00,65.4,58.7,29.99,SSW,202,5.0,11.0,79,0.00,,OVC027,0.03,VWS V15.00,2017-03-26 16:06:00,
2017-03-26 11:11:00,66.0,59.7,29.99,SSW,199,7.0,11.0,80,0.00,,OVC027,0.03,VWS V15.00,2017-03-26 16:11:00,
2017-03-26 11:16:00,66.3,59.2,29.99,South,178,6.0,12.0,78,0.00,,OVC027,0.03,VWS V15.00,2017-03-26 16:16:00,
2017-03-26 11:21:00,66.9,59.8,29.99,South,188,2.0,8.0,78,0.00,,OVC027,0.03,VWS V15.00,2017-03-26 16:21:00,
2017-03-26 11:26:00,67.5,59.3,29.99,WSW,240,6.0,9.0,75,0.00,,OVC027,0.03,VWS V15.00,2017-03-26 16:26:00,
2017-03-26 11:31:00,67.4,59.2,29.99,SSW,212,4.0,4.0,75,0.00,,OVC027,0.03,VWS V15.00,2017-03-26 16:31:00,
2017-03-26 11:36:00,67.3,59.5,29.98,SSW,203,5.0,9.0,76,0.00,,OVC027,0.03,VWS V15.00,2017-03-26 16:36:00,
2017-03-26 11:41:00,67.6,59.4,29.98,SW,234,4.0,5.0,75,0.00,,BKN120,0.03,VWS V15.00,2017-03-26 16:41:00,
2017-03-26 11:46:00,68.1,59.1,29.98,SSW,202,5.0,10.0,73,0.00,,BKN120,0.03,VWS V15.00,2017-03-26 16:46:00,
2017-03-26 11:51:00,68.6,60.0,29.98,SSW,209,3.0,9.0,74,0.00,,BKN120,0.03,VWS V15.00,2017-03-26 16:51:00,
2017-03-26 11:56:00,68.9,59.1,29.98,SSW,199,7.0,12.0,71,0.00,,BKN120,0.03,VWS V15.00,2017-03-26 16:56:00,
2017-03-26 12:01:00,69.1,59.3,29.98,SSW,196,7.0,9.0,71,0.00,,BKN120,0.03,VWS V15.00,2017-03-26 17:01:00,
2017-03-26 12:11:00,69.7,59.5,29.98,SSW,207,7.0,10.0,70,0.00,,BKN120,0.03,VWS V15.00,2017-03-26 17:11:00,
2017-03-26 12:16:00,70.1,59.1,29.98,SSW,202,3.0,13.0,68,0.00,,BKN120,0.03,VWS V15.00,2017-03-26 17:16:00,
2017-03-26 12:21:00,69.9,58.9,29.98,South,169,5.0,9.0,68,0.00,,BKN120,0.03,VWS V15.00,2017-03-26 17:21:00,
2017-03-26 12:26:00,69.8,59.2,29.98,SSW,198,2.0,11.0,69,0.00,,BKN120,0.03,VWS V15.00,2017-03-26 17:26:00,
2017-03-26 12:31:00,70.3,59.2,29.98,SSW,205,5.0,11.0,68,0.00,,BKN120,0.03,VWS V15.00,2017-03-26 17:31:00,
2017-03-26 12:36:00,70.4,58.9,29.98,South,175,3.0,13.0,67,0.00,,BKN120,0.03,VWS V15.00,2017-03-26 17:36:00,
2017-03-26 12:41:00,70.6,59.1,29.97,South,188,7.0,10.0,67,0.00,,BKN026,0.03,VWS V15.00,2017-03-26 17:41:00,
2017-03-26 12:46:00,70.4,59.3,29.97,SSW,196,3.0,10.0,68,0.00,,BKN026,0.03,VWS V15.00,2017-03-26 17:46:00,
2017-03-26 12:51:00,69.6,58.6,29.97,SSW,194,5.0,7.0,68,0.00,,BKN026,0.03,VWS V15.00,2017-03-26 17:51:00,
2017-03-26 12:56:00,69.1,58.9,29.97,SSW,194,2.0,11.0,70,0.00,,BKN026,0.03,VWS V15.00,2017-03-26 17:56:00,
2017-03-26 13:01:00,68.9,59.1,29.97,South,188,11.0,11.0,71,0.00,,BKN026,0.03,VWS V15.00,2017-03-26 18:01:00,
2017-03-26 13:06:00,68.9,59.9,29.97,SSW,194,5.0,11.0,73,0.00,,BKN026,0.03,VWS V15.00,2017-03-26 18:06:00,
2017-03-26 13:11:00,69.8,60.0,29.97,SE,144,10.0,10.0,71,0.00,,BKN026,0.03,VWS V15.00,2017-03-26 18:11:00,
2017-03-26 13:16:00,70.6,60.3,29.96,South,175,10.0,12.0,70,0.00,,BKN026,0.03,VWS V15.00,2017-03-26 18:16:00,
2017-03-26 13:21:00,71.1,60.0,29.96,South,169,6.0,12.0,68,0.00,,BKN026,0.03,VWS V15.00,2017-03-26 18:21:00,
2017-03-26 13:26:00,71.0,59.9,29.96,South,171,8.0,12.0,68,0.00,,BKN026,0.03,VWS V15.00,2017-03-26 18:26:00,
2017-03-26 13:31:00,70.8,59.3,29.96,SSW,192,3.0,3.0,67,0.00,,BKN026,0.03,VWS V15.00,2017-03-26 18:31:00,
2017-03-26 13:36:00,70.7,59.6,29.95,SSW,198,1.0,12.0,68,0.00,,BKN026,0.03,VWS V15.00,2017-03-26 18:36:00,
2017-03-26 13:41:00,70.7,58.8,29.96,SSW,195,4.0,11.0,66,0.00,,BKN026,0.03,VWS V15.00,2017-03-26 18:41:00,
2017-03-26 13:46:00,70.3,59.2,29.96,SW,228,0.0,12.0,68,0.00,,BKN026,0.03,VWS V15.00,2017-03-26 18:46:00,
2017-03-26 13:51:00,70.2,59.2,29.96,SW,216,3.0,3.0,68,0.00,,BKN026,0.03,VWS V15.00,2017-03-26 18:51:00,
2017-03-26 13:56:00,70.3,59.2,29.96,SW,222,2.0,8.0,68,0.00,,BKN026,0.03,VWS V15.00,2017-03-26 18:56:00,
2017-03-26 14:01:00,70.5,59.0,29.95,South,187,5.0,6.0,67,0.00,,BKN026,0.03,VWS V15.00,2017-03-26 19:01:00,
2017-03-26 14:06:00,70.6,58.7,29.95,SSW,198,6.0,11.0,66,0.00,,BKN026,0.03,VWS V15.00,2017-03-26 19:06:00,
2017-03-26 14:11:00,70.6,58.7,29.95,SW,218,7.0,17.0,66,0.00,,BKN026,0.03,VWS V15.00,2017-03-26 19:11:00,
2017-03-26 14:16:00,70.5,58.2,29.95,WSW,242,6.0,17.0,65,0.00,,BKN026,0.03,VWS V15.00,2017-03-26 19:16:00,
2017-03-26 14:21:00,71.0,58.2,29.94,SW,236,3.0,4.0,64,0.00,,BKN026,0.03,VWS V15.00,2017-03-26 19:21:00,
2017-03-26 14:26:00,71.7,58.5,29.94,WSW,249,7.0,10.0,63,0.00,,BKN026,0.03,VWS V15.00,2017-03-26 19:26:00,
2017-03-26 14:31:00,71.9,57.7,29.95,SW,217,8.0,8.0,61,0.00,,BKN026,0.03,VWS V15.00,2017-03-26 19:31:00,
2017-03-26 14:36:00,71.7,57.5,29.95,SW,219,4.0,13.0,61,0.00,,BKN026,0.03,VWS V15.00,2017-03-26 19:36:00,
2017-03-26 14:41:00,71.9,57.7,29.95,SSW,195,6.0,6.0,61,0.00,,BKN045,0.03,VWS V15.00,2017-03-26 19:41:00,
2017-03-26 14:46:00,72.1,57.9,29.95,SW,234,7.0,11.0,61,0.00,,BKN045,0.03,VWS V15.00,2017-03-26 19:46:00,
2017-03-26 14:51:00,72.6,57.9,29.94,West,275,9.0,12.0,60,0.00,,BKN045,0.03,VWS V15.00,2017-03-26 19:51:00,
2017-03-26 14:56:00,72.7,58.0,29.94,SSW,194,6.0,12.0,60,0.00,,BKN045,0.03,VWS V15.00,2017-03-26 19:56:00,
2017-03-26 15:01:00,72.6,58.4,29.94,SSW,194,1.0,7.0,61,0.00,,BKN045,0.03,VWS V15.00,2017-03-26 20:01:00,
2017-03-26 15:06:00,72.5,58.8,29.94,South,190,0.0,8.0,62,0.00,,BKN045,0.03,VWS V15.00,2017-03-26 20:06:00,
2017-03-26 15:11:00,72.4,57.8,29.94,WSW,241,14.0,14.0,60,0.00,,BKN045,0.03,VWS V15.00,2017-03-26 20:11:00,
2017-03-26 15:16:00,72.3,57.2,29.94,SW,229,4.0,14.0,59,0.00,,BKN045,0.03,VWS V15.00,2017-03-26 20:16:00,
2017-03-26 15:21:00,72.0,57.4,29.93,SW,229,4.0,4.0,60,0.00,,BKN045,0.03,VWS V15.00,2017-03-26 20:21:00,
2017-03-26 15:26:00,71.8,57.2,29.93,SSW,198,9.0,10.0,60,0.00,,BKN045,0.03,VWS V15.00,2017-03-26 20:26:00,
2017-03-26 15:31:00,71.4,56.8,29.94,WSW,244,4.0,14.0,60,0.00,,BKN045,0.03,VWS V15.00,2017-03-26 20:31:00,
2017-03-26 15:36:00,71.7,57.5,29.94,SSW,199,3.0,14.0,61,0.00,,BKN045,0.03,VWS V15.00,2017-03-26 20:36:00,
2017-03-26 15:41:00,72.3,57.7,29.93,South,190,7.0,7.0,60,0.00,,BKN080,0.03,VWS V15.00,2017-03-26 20:41:00,
2017-03-26 15:46:00,72.6,57.9,29.93,SSW,202,4.0,10.0,60,0.00,,BKN080,0.03,VWS V15.00,2017-03-26 20:46:00,
2017-03-26 15:51:00,72.8,57.7,29.93,SW,222,6.0,6.0,59,0.00,,BKN080,0.03,VWS V15.00,2017-03-26 20:51:00,
2017-03-26 15:56:00,72.9,57.8,29.93,WSW,245,12.0,12.0,59,0.00,,BKN080,0.03,VWS V15.00,2017-03-26 20:56:00,
2017-03-26 16:01:00,72.9,57.3,29.93,SW,225,6.0,7.0,58,0.00,,BKN080,0.03,VWS V15.00,2017-03-26 21:01:00,
2017-03-26 16:06:00,73.5,57.3,29.93,SW,236,9.0,11.0,57,0.00,,BKN080,0.03,VWS V15.00,2017-03-26 21:06:00,
2017-03-26 16:11:00,74.2,58.0,29.93,South,186,11.0,11.0,57,0.00,,BKN080,0.03,VWS V15.00,2017-03-26 21:11:00,
2017-03-26 16:16:00,74.2,57.0,29.93,SSW,192,7.0,13.0,55,0.00,,BKN080,0.03,VWS V15.00,2017-03-26 21:16:00,
2017-03-26 16:21:00,74.4,56.7,29.92,SW,218,0.0,4.0,54,0.00,,BKN080,0.03,VWS V15.00,2017-03-26 21:21:00,
2017-03-26 16:26:00,74.8,56.5,29.93,WSW,244,0.0,13.0,53,0.00,,BKN080,0.03,VWS V15.00,2017-03-26 21:26:00,
2017-03-26 16:31:00,74.7,55.9,29.93,SW,236,5.0,6.0,52,0.00,,BKN080,0.03,VWS V15.00,2017-03-26 21:31:00,
2017-03-26 16:36:00,74.3,56.1,29.92,South,187,7.0,12.0,53,0.00,,BKN080,0.03,VWS V15.00,2017-03-26 21:36:00,
2017-03-26 16:41:00,74.0,55.8,29.92,WSW,257,3.0,14.0,53,0.00,,BKN080,0.03,VWS V15.00,2017-03-26 21:41:00,
2017-03-26 16:46:00,73.6,55.4,29.92,WSW,240,2.0,14.0,53,0.00,,BKN080,0.03,VWS V15.00,2017-03-26 21:46:00,
2017-03-26 16:51:00,73.4,56.3,29.92,SW,234,2.0,5.0,55,0.00,,BKN080,0.03,VWS V15.00,2017-03-26 21:51:00,
2017-03-26 16:56:00,73.3,55.7,29.92,SSW,196,6.0,10.0,54,0.00,,BKN080,0.03,VWS V15.00,2017-03-26 21:56:00,
2017-03-26 17:01:00,73.4,55.8,29.93,WSW,242,11.0,11.0,54,0.00,,BKN080,0.03,VWS V15.00,2017-03-26 22:01:00,
2017-03-26 17:06:00,73.1,55.0,29.92,SSW,205,7.0,13.0,53,0.00,,BKN080,0.03,VWS V15.00,2017-03-26 22:06:00,
2017-03-26 17:11:00,73.0,55.4,29.92,WSW,243,4.0,6.0,54,0.00,,BKN080,0.03,VWS V15.00,2017-03-26 22:11:00,
2017-03-26 17:16:00,73.0,55.4,29.93,WSW,243,5.0,14.0,54,0.00,,BKN080,0.03,VWS V15.00,2017-03-26 22:16:00,
2017-03-26 17:21:00,72.9,55.8,29.92,SW,215,4.0,8.0,55,0.00,,BKN080,0.03,VWS V15.00,2017-03-26 22:21:00,
2017-03-26 17:26:00,72.8,55.7,29.93,WSW,240,0.0,9.0,55,0.00,,BKN080,0.03,VWS V15.00,2017-03-26 22:26:00,
2017-03-26 17:31:00,72.7,55.6,29.93,South,182,0.0,4.0,55,0.00,,BKN080,0.03,VWS V15.00,2017-03-26 22:31:00,
2017-03-26 17:36:00,72.8,55.7,29.93,WSW,238,3.0,11.0,55,0.00,,BKN080,0.03,VWS V15.00,2017-03-26 22:36:00,
2017-03-26 17:41:00,72.7,55.6,29.93,SSW,209,0.0,5.0,55,0.00,,BKN250,0.03,VWS V15.00,2017-03-26 22:41:00,
2017-03-26 17:46:00,72.6,55.5,29.93,SSW,201,5.0,7.0,55,0.00,,BKN250,0.03,VWS V15.00,2017-03-26 22:46:00,
2017-03-26 17:51:00,72.3,55.2,29.93,SSW,211,5.0,11.0,55,0.00,,BKN250,0.03,VWS V15.00,2017-03-26 22:51:00,
2017-03-26 17:56:00,72.1,55.6,29.93,SSW,211,2.0,11.0,56,0.00,,BKN250,0.03,VWS V15.00,2017-03-26 22:56:00,
2017-03-26 18:01:00,72.0,55.5,29.93,WSW,238,3.0,6.0,56,0.00,,BKN250,0.03,VWS V15.00,2017-03-26 23:01:00,
2017-03-26 18:06:00,71.8,55.3,29.94,SW,231,0.0,7.0,56,0.00,,BKN250,0.03,VWS V15.00,2017-03-26 23:06:00,
2017-03-26 18:11:00,71.7,55.2,29.94,SW,214,0.0,0.0,56,0.00,,BKN250,0.03,VWS V15.00,2017-03-26 23:11:00,
2017-03-26 18:16:00,71.7,55.7,29.94,SSW,197,4.0,10.0,57,0.00,,BKN250,0.03,VWS V15.00,2017-03-26 23:16:00,
2017-03-26 18:21:00,71.5,55.0,29.94,SSW,210,3.0,6.0,56,0.00,,BKN250,0.03,VWS V15.00,2017-03-26 23:21:00,
2017-03-26 18:26:00,71.4,55.4,29.94,SSW,194,3.0,8.0,57,0.00,,BKN250,0.03,VWS V15.00,2017-03-26 23:26:00,
2017-03-26 18:31:00,71.3,55.8,29.95,SSW,205,3.0,6.0,58,0.00,,BKN250,0.03,VWS V15.00,2017-03-26 23:31:00,
2017-03-26 18:36:00,71.2,55.7,29.95,SSW,203,2.0,6.0,58,0.00,,BKN250,0.03,VWS V15.00,2017-03-26 23:36:00,
2017-03-26 18:41:00,71.1,55.6,29.95,SSW,197,1.0,3.0,58,0.00,,BKN090,0.03,VWS V15.00,2017-03-26 23:41:00,
2017-03-26 18:46:00,71.0,55.5,29.95,SSW,197,0.0,3.0,58,0.00,,BKN090,0.03,VWS V15.00,2017-03-26 23:46:00,
2017-03-26 18:51:00,70.9,55.4,29.95,SSW,197,0.0,0.0,58,0.00,,BKN090,0.03,VWS V15.00,2017-03-26 23:51:00,
2017-03-26 18:56:00,70.8,55.8,29.95,SSW,199,0.0,1.0,59,0.00,,BKN090,0.03,VWS V15.00,2017-03-26 23:56:00,
2017-03-26 19:01:00,70.7,55.7,29.95,SSW,200,0.0,0.0,59,0.00,,BKN090,0.03,VWS V15.00,2017-03-27 00:01:00,
2017-03-26 19:06:00,70.6,55.6,29.95,SSW,200,0.0,0.0,59,0.00,,BKN090,0.03,VWS V15.00,2017-03-27 00:06:00,
2017-03-26 19:11:00,70.4,55.4,29.95,SSW,200,0.0,3.0,59,0.00,,BKN080,0.03,VWS V15.00,2017-03-27 00:11:00,
2017-03-26 19:16:00,70.3,55.8,29.96,SSW,200,0.0,3.0,60,0.00,,BKN080,0.03,VWS V15.00,2017-03-27 00:16:00,
2017-03-26 19:21:00,70.2,55.7,29.96,SSW,200,0.0,0.0,60,0.00,,BKN080,0.03,VWS V15.00,2017-03-27 00:21:00,
2017-03-26 19:26:00,70.0,55.5,29.96,SSW,200,0.0,0.0,60,0.00,,BKN080,0.03,VWS V15.00,2017-03-27 00:26:00,
2017-03-26 19:31:00,69.9,55.4,29.96,SSW,200,0.0,0.0,60,0.00,,BKN080,0.03,VWS V15.00,2017-03-27 00:31:00,
2017-03-26 19:36:00,69.7,55.7,29.96,SSW,200,0.0,0.0,61,0.00,,BKN080,0.03,VWS V15.00,2017-03-27 00:36:00,
2017-03-26 19:41:00,69.5,55.9,29.96,SSW,200,0.0,0.0,62,0.00,,BKN080,0.03,VWS V15.00,2017-03-27 00:41:00,
2017-03-26 19:46:00,69.4,55.8,29.96,SSW,200,0.0,0.0,62,0.00,,BKN080,0.03,VWS V15.00,2017-03-27 00:46:00,
2017-03-26 19:51:00,69.1,56.0,29.97,SSW,200,0.0,0.0,63,0.00,,BKN080,0.03,VWS V15.00,2017-03-27 00:51:00,
2017-03-26 19:56:00,68.8,55.7,29.97,SSW,200,0.0,0.0,63,0.00,,BKN080,0.03,VWS V15.00,2017-03-27 00:56:00,
2017-03-26 20:01:00,68.6,55.5,29.97,SSW,200,0.0,0.0,63,0.00,,BKN080,0.03,VWS V15.00,2017-03-27 01:01:00,
2017-03-26 20:06:00,68.4,55.8,29.97,SSW,200,0.0,0.0,64,0.00,,BKN080,0.03,VWS V15.00,2017-03-27 01:06:00,
2017-03-26 20:11:00,68.1,55.9,29.97,SSW,200,0.0,0.0,65,0.00,,BKN080,0.03,VWS V15.00,2017-03-27 01:11:00,
2017-03-26 20:16:00,67.8,56.0,29.97,SSW,200,0.0,0.0,66,0.00,,BKN080,0.03,VWS V15.00,2017-03-27 01:16:00,
2017-03-26 20:21:00,67.6,55.8,29.98,SSW,200,0.0,0.0,66,0.00,,BKN080,0.03,VWS V15.00,2017-03-27 01:21:00,
2017-03-26 20:26:00,67.3,56.0,29.97,SSW,200,0.0,0.0,67,0.00,,BKN080,0.03,VWS V15.00,2017-03-27 01:26:00,
2017-03-26 20:31:00,67.1,56.2,29.98,SSW,200,0.0,0.0,68,0.00,,BKN080,0.03,VWS V15.00,2017-03-27 01:31:00,
2017-03-26 20:36:00,67.0,56.1,29.98,SSW,200,0.0,0.0,68,0.00,,BKN080,0.03,VWS V15.00,2017-03-27 01:36:00,
2017-03-26 20:41:00,66.8,56.3,29.98,SSW,200,0.0,0.0,69,0.00,,BKN075,0.03,VWS V15.00,2017-03-27 01:41:00,
2017-03-26 20:46:00,66.7,56.6,29.98,SSW,200,0.0,0.0,70,0.00,,BKN075,0.03,VWS V15.00,2017-03-27 01:46:00,